Year,Month,Day,Hour,Minute,Value (Times are PST for temperature in C)
2023,05,14,00,00,16.90
2023,05,14,00,01,16.90
2023,05,14,00,02,16.90
2023,05,14,00,03,16.90
2023,05,14,00,04,16.80
2023,05,14,00,05,16.80
2023,05,14,00,06,16.70
2023,05,14,00,07,16.70
2023,05,14,00,08,16.60
2023,05,14,00,09,16.50
2023,05,14,00,10,16.40
2023,05,14,00,11,16.40
2023,05,14,00,12,16.40
2023,05,14,00,13,16.30
2023,05,14,00,14,16.30
2023,05,14,00,15,16.30
2023,05,14,00,16,16.20
2023,05,14,00,17,16.20
2023,05,14,00,18,16.20
2023,05,14,00,19,16.20
2023,05,14,00,20,16.20
2023,05,14,00,21,16.10
2023,05,14,00,22,16.10
2023,05,14,00,23,16.10
2023,05,14,00,24,16.10
2023,05,14,00,25,16.10
2023,05,14,00,26,16.10
2023,05,14,00,27,16.10
2023,05,14,00,28,16.10
2023,05,14,00,29,16.10
2023,05,14,00,30,16.10
2023,05,14,00,31,16.20
2023,05,14,00,32,16.20
2023,05,14,00,33,16.30
2023,05,14,00,34,16.30
2023,05,14,00,35,16.30
2023,05,14,00,36,16.40
2023,05,14,00,37,16.40
2023,05,14,00,38,16.40
2023,05,14,00,39,16.40
2023,05,14,00,40,16.30
2023,05,14,00,41,16.30
2023,05,14,00,42,16.30
2023,05,14,00,43,16.30
2023,05,14,00,44,16.30
2023,05,14,00,45,16.20
2023,05,14,00,46,16.20
2023,05,14,00,47,16.20
2023,05,14,00,48,16.20
2023,05,14,00,49,16.10
2023,05,14,00,50,16.10
2023,05,14,00,51,16.10
2023,05,14,00,52,16.10
2023,05,14,00,53,16.10
2023,05,14,00,54,16.10
2023,05,14,00,55,16.10
2023,05,14,00,56,16.00
2023,05,14,00,57,15.90
2023,05,14,00,58,15.90
2023,05,14,00,59,15.90
2023,05,14,01,00,15.80
2023,05,14,01,01,15.80
2023,05,14,01,02,15.80
2023,05,14,01,03,15.80
2023,05,14,01,04,15.80
2023,05,14,01,05,15.80
2023,05,14,01,06,15.80
2023,05,14,01,07,15.80
2023,05,14,01,08,15.70
2023,05,14,01,09,15.70
2023,05,14,01,10,15.70
2023,05,14,01,11,15.70
2023,05,14,01,12,15.70
2023,05,14,01,13,15.70
2023,05,14,01,14,15.60
2023,05,14,01,15,15.60
2023,05,14,01,16,15.50
2023,05,14,01,17,15.50
2023,05,14,01,18,15.50
2023,05,14,01,19,15.40
2023,05,14,01,20,15.30
2023,05,14,01,21,15.30
2023,05,14,01,22,15.30
2023,05,14,01,23,15.30
2023,05,14,01,24,15.30
2023,05,14,01,25,15.30
2023,05,14,01,26,15.40
2023,05,14,01,27,15.40
2023,05,14,01,28,15.40
2023,05,14,01,29,15.40
2023,05,14,01,30,15.40
2023,05,14,01,31,15.50
2023,05,14,01,32,15.50
2023,05,14,01,33,15.50
2023,05,14,01,34,15.50
2023,05,14,01,35,15.50
2023,05,14,01,36,15.50
2023,05,14,01,37,15.50
2023,05,14,01,38,15.50
2023,05,14,01,39,15.50
2023,05,14,01,40,15.40
2023,05,14,01,41,15.40
2023,05,14,01,42,15.40
2023,05,14,01,43,15.40
2023,05,14,01,44,15.40
2023,05,14,01,45,15.40
2023,05,14,01,46,15.40
2023,05,14,01,47,15.50
2023,05,14,01,48,15.50
2023,05,14,01,49,15.60
2023,05,14,01,50,15.60
2023,05,14,01,51,15.60
2023,05,14,01,52,15.60
2023,05,14,01,53,15.60
2023,05,14,01,54,15.50
2023,05,14,01,55,15.40
2023,05,14,01,56,15.40
2023,05,14,01,57,15.30
2023,05,14,01,58,15.30
2023,05,14,01,59,15.30
2023,05,14,02,00,15.20
2023,05,14,02,01,15.20
2023,05,14,02,02,15.20
2023,05,14,02,03,15.20
2023,05,14,02,04,15.30
2023,05,14,02,05,15.30
2023,05,14,02,06,15.30
2023,05,14,02,07,15.40
2023,05,14,02,08,15.50
2023,05,14,02,09,15.50
2023,05,14,02,10,15.60
2023,05,14,02,11,15.60
2023,05,14,02,12,15.50
2023,05,14,02,13,15.50
2023,05,14,02,14,15.60
2023,05,14,02,15,15.60
2023,05,14,02,16,15.70
2023,05,14,02,17,15.70
2023,05,14,02,18,15.80
2023,05,14,02,19,15.80
2023,05,14,02,20,15.80
2023,05,14,02,21,15.80
2023,05,14,02,22,15.80
2023,05,14,02,23,15.70
2023,05,14,02,24,15.70
2023,05,14,02,25,15.70
2023,05,14,02,26,15.70
2023,05,14,02,27,15.70
2023,05,14,02,28,15.70
2023,05,14,02,29,15.80
2023,05,14,02,30,15.80
2023,05,14,02,31,15.80
2023,05,14,02,32,15.90
2023,05,14,02,33,15.90
2023,05,14,02,34,15.90
2023,05,14,02,35,15.90
2023,05,14,02,36,15.90
2023,05,14,02,37,15.90
2023,05,14,02,38,15.90
2023,05,14,02,39,15.90
2023,05,14,02,40,15.90
2023,05,14,02,41,15.90
2023,05,14,02,42,15.80
2023,05,14,02,43,15.80
2023,05,14,02,44,15.80
2023,05,14,02,45,15.80
2023,05,14,02,46,15.80
2023,05,14,02,47,15.80
2023,05,14,02,48,15.80
2023,05,14,02,49,15.80
2023,05,14,02,50,15.80
2023,05,14,02,51,15.80
2023,05,14,02,52,15.80
2023,05,14,02,53,15.80
2023,05,14,02,54,15.80
2023,05,14,02,55,15.80
2023,05,14,02,56,15.80
2023,05,14,02,57,15.80
2023,05,14,02,58,15.80
2023,05,14,02,59,15.80
2023,05,14,03,00,15.80
2023,05,14,03,01,15.80
2023,05,14,03,02,15.80
2023,05,14,03,03,15.80
2023,05,14,03,04,15.80
2023,05,14,03,05,15.80
2023,05,14,03,06,15.80
2023,05,14,03,07,15.80
2023,05,14,03,08,15.80
2023,05,14,03,09,15.70
2023,05,14,03,10,15.70
2023,05,14,03,11,15.60
2023,05,14,03,12,15.60
2023,05,14,03,13,15.50
2023,05,14,03,14,15.50
2023,05,14,03,15,15.40
2023,05,14,03,16,15.40
2023,05,14,03,17,15.30
2023,05,14,03,18,15.30
2023,05,14,03,19,15.30
2023,05,14,03,20,15.30
2023,05,14,03,21,15.30
2023,05,14,03,22,15.30
2023,05,14,03,23,15.30
2023,05,14,03,24,15.30
2023,05,14,03,25,15.30
2023,05,14,03,26,15.20
2023,05,14,03,27,15.20
2023,05,14,03,28,15.10
2023,05,14,03,29,15.10
2023,05,14,03,30,15.00
2023,05,14,03,31,15.00
2023,05,14,03,32,14.90
2023,05,14,03,33,14.90
2023,05,14,03,34,14.80
2023,05,14,03,35,14.80
2023,05,14,03,36,14.80
2023,05,14,03,37,14.80
2023,05,14,03,38,14.80
2023,05,14,03,39,14.80
2023,05,14,03,40,14.70
2023,05,14,03,41,14.70
2023,05,14,03,42,14.70
2023,05,14,03,43,14.70
2023,05,14,03,44,14.70
2023,05,14,03,45,14.70
2023,05,14,03,46,14.70
2023,05,14,03,47,14.80
2023,05,14,03,48,14.90
2023,05,14,03,49,15.10
2023,05,14,03,50,15.20
2023,05,14,03,51,15.30
2023,05,14,03,52,15.30
2023,05,14,03,53,15.40
2023,05,14,03,54,15.50
2023,05,14,03,55,15.60
2023,05,14,03,56,15.70
2023,05,14,03,57,15.70
2023,05,14,03,58,15.70
2023,05,14,03,59,15.70
2023,05,14,04,00,15.70
2023,05,14,04,01,15.60
2023,05,14,04,02,15.60
2023,05,14,04,03,15.60
2023,05,14,04,04,15.70
2023,05,14,04,05,15.80
2023,05,14,04,06,16.00
2023,05,14,04,07,16.20
2023,05,14,04,08,16.50
2023,05,14,04,09,16.80
2023,05,14,04,10,17.10
2023,05,14,04,11,17.40
2023,05,14,04,12,17.60
2023,05,14,04,13,17.90
2023,05,14,04,14,18.10
2023,05,14,04,15,18.20
2023,05,14,04,16,18.30
2023,05,14,04,17,18.40
2023,05,14,04,18,18.50
2023,05,14,04,19,18.60
2023,05,14,04,20,18.60
2023,05,14,04,21,18.70
2023,05,14,04,22,18.70
2023,05,14,04,23,18.80
2023,05,14,04,24,18.90
2023,05,14,04,25,18.90
2023,05,14,04,26,18.90
2023,05,14,04,27,19.10
2023,05,14,04,28,19.10
2023,05,14,04,29,19.10
2023,05,14,04,30,19.10
2023,05,14,04,31,19.20
2023,05,14,04,32,19.30
2023,05,14,04,33,19.30
2023,05,14,04,34,19.30
2023,05,14,04,35,19.30
2023,05,14,04,36,19.30
2023,05,14,04,37,19.40
2023,05,14,04,38,19.40
2023,05,14,04,39,19.40
2023,05,14,04,40,19.50
2023,05,14,04,41,19.50
2023,05,14,04,42,19.50
2023,05,14,04,43,19.50
2023,05,14,04,44,19.50
2023,05,14,04,45,19.50
2023,05,14,04,46,19.50
2023,05,14,04,47,19.50
2023,05,14,04,48,19.50
2023,05,14,04,49,19.50
2023,05,14,04,50,19.50
2023,05,14,04,51,19.50
2023,05,14,04,52,19.40
2023,05,14,04,53,19.40
2023,05,14,04,54,19.30
2023,05,14,04,55,19.30
2023,05,14,04,56,19.30
2023,05,14,04,57,19.30
2023,05,14,04,58,19.30
2023,05,14,04,59,19.30
2023,05,14,05,00,19.30
2023,05,14,05,01,19.30
2023,05,14,05,02,19.30
2023,05,14,05,03,19.40
2023,05,14,05,04,19.40
2023,05,14,05,05,19.40
2023,05,14,05,06,19.40
2023,05,14,05,07,19.40
2023,05,14,05,08,19.40
2023,05,14,05,09,19.50
2023,05,14,05,10,19.50
2023,05,14,05,11,19.50
2023,05,14,05,12,19.50
2023,05,14,05,13,19.60
2023,05,14,05,14,19.60
2023,05,14,05,15,19.70
2023,05,14,05,16,19.70
2023,05,14,05,17,19.80
2023,05,14,05,18,19.80
2023,05,14,05,19,19.90
2023,05,14,05,20,19.90
2023,05,14,05,21,19.90
2023,05,14,05,22,19.90
2023,05,14,05,23,19.80
2023,05,14,05,24,19.80
2023,05,14,05,25,19.80
2023,05,14,05,26,19.80
2023,05,14,05,27,19.80
2023,05,14,05,28,19.80
2023,05,14,05,29,19.80
2023,05,14,05,30,19.80
2023,05,14,05,31,19.80
2023,05,14,05,32,19.80
2023,05,14,05,33,19.80
2023,05,14,05,34,19.70
2023,05,14,05,35,19.70
2023,05,14,05,36,19.70
2023,05,14,05,37,19.70
2023,05,14,05,38,19.70
2023,05,14,05,39,19.70
2023,05,14,05,40,19.60
2023,05,14,05,41,19.60
2023,05,14,05,42,19.60
2023,05,14,05,43,19.60
2023,05,14,05,44,19.50
2023,05,14,05,45,19.50
2023,05,14,05,46,19.50
2023,05,14,05,47,19.50
2023,05,14,05,48,19.50
2023,05,14,05,49,19.40
2023,05,14,05,50,19.40
2023,05,14,05,51,19.30
2023,05,14,05,52,19.30
2023,05,14,05,53,19.20
2023,05,14,05,54,19.10
2023,05,14,05,55,19.10
2023,05,14,05,56,19.10
2023,05,14,05,57,19.00
2023,05,14,05,58,18.90
2023,05,14,05,59,18.90
2023,05,14,06,00,18.90
2023,05,14,06,01,18.90
2023,05,14,06,02,18.80
2023,05,14,06,03,18.80
2023,05,14,06,04,18.80
2023,05,14,06,05,18.80
2023,05,14,06,06,18.80
2023,05,14,06,07,18.80
2023,05,14,06,08,18.70
2023,05,14,06,09,18.80
2023,05,14,06,10,18.80
2023,05,14,06,11,18.70
2023,05,14,06,12,18.80
2023,05,14,06,13,18.70
2023,05,14,06,14,18.70
2023,05,14,06,15,18.70
2023,05,14,06,16,18.70
2023,05,14,06,17,18.70
2023,05,14,06,18,18.70
2023,05,14,06,19,18.70
2023,05,14,06,20,18.60
2023,05,14,06,21,18.60
2023,05,14,06,22,18.60
2023,05,14,06,23,18.60
2023,05,14,06,24,18.50
2023,05,14,06,25,18.50
2023,05,14,06,26,18.50
2023,05,14,06,27,18.40
2023,05,14,06,28,18.40
2023,05,14,06,29,18.40
2023,05,14,06,30,18.40
2023,05,14,06,31,18.40
2023,05,14,06,32,18.40
2023,05,14,06,33,18.40
2023,05,14,06,34,18.40
2023,05,14,06,35,18.40
2023,05,14,06,36,18.40
2023,05,14,06,37,18.30
2023,05,14,06,38,18.30
2023,05,14,06,39,18.30
2023,05,14,06,40,18.30
2023,05,14,06,41,18.30
2023,05,14,06,42,18.30
2023,05,14,06,43,18.30
2023,05,14,06,44,18.30
2023,05,14,06,45,18.40
2023,05,14,06,46,18.40
2023,05,14,06,47,18.40
2023,05,14,06,48,18.40
2023,05,14,06,49,18.40
2023,05,14,06,50,18.40
2023,05,14,06,51,18.50
2023,05,14,06,52,18.50
2023,05,14,06,53,18.50
2023,05,14,06,54,18.60
2023,05,14,06,55,18.60
2023,05,14,06,56,18.60
2023,05,14,06,57,18.60
2023,05,14,06,58,18.70
2023,05,14,06,59,18.70
2023,05,14,07,00,18.70
2023,05,14,07,01,18.70
2023,05,14,07,02,18.80
2023,05,14,07,03,18.80
2023,05,14,07,04,18.80
2023,05,14,07,05,18.90
2023,05,14,07,06,18.90
2023,05,14,07,07,18.90
2023,05,14,07,08,18.90
2023,05,14,07,09,18.90
2023,05,14,07,10,18.90
2023,05,14,07,11,18.90
2023,05,14,07,12,18.90
2023,05,14,07,13,18.90
2023,05,14,07,14,18.80
2023,05,14,07,15,18.80
2023,05,14,07,16,18.80
2023,05,14,07,17,18.80
2023,05,14,07,18,18.80
2023,05,14,07,19,18.80
2023,05,14,07,20,18.70
2023,05,14,07,21,18.70
2023,05,14,07,22,18.70
2023,05,14,07,23,18.70
2023,05,14,07,24,18.70
2023,05,14,07,25,18.70
2023,05,14,07,26,18.70
2023,05,14,07,27,18.80
2023,05,14,07,28,18.80
2023,05,14,07,29,18.90
2023,05,14,07,30,18.90
2023,05,14,07,31,19.00
2023,05,14,07,32,19.10
2023,05,14,07,33,19.10
2023,05,14,07,34,19.20
2023,05,14,07,35,19.20
2023,05,14,07,36,19.30
2023,05,14,07,37,19.40
2023,05,14,07,38,19.40
2023,05,14,07,39,19.50
2023,05,14,07,40,19.50
2023,05,14,07,41,19.60
2023,05,14,07,42,19.70
2023,05,14,07,43,19.80
2023,05,14,07,44,19.80
2023,05,14,07,45,19.80
2023,05,14,07,46,19.80
2023,05,14,07,47,19.70
2023,05,14,07,48,19.70
2023,05,14,07,49,19.70
2023,05,14,07,50,19.70
2023,05,14,07,51,19.60
2023,05,14,07,52,19.60
2023,05,14,07,53,19.60
2023,05,14,07,54,19.60
2023,05,14,07,55,19.70
2023,05,14,07,56,19.80
2023,05,14,07,57,19.80
2023,05,14,07,58,19.80
2023,05,14,07,59,19.80
2023,05,14,08,00,19.90
2023,05,14,08,01,19.90
2023,05,14,08,02,19.90
2023,05,14,08,03,20.00
2023,05,14,08,04,20.10
2023,05,14,08,05,20.20
2023,05,14,08,06,20.20
2023,05,14,08,07,20.20
2023,05,14,08,08,20.30
2023,05,14,08,09,20.30
2023,05,14,08,10,20.30
2023,05,14,08,11,20.40
2023,05,14,08,12,20.40
2023,05,14,08,13,20.50
2023,05,14,08,14,20.50
2023,05,14,08,15,20.50
2023,05,14,08,16,20.50
2023,05,14,08,17,20.50
2023,05,14,08,18,20.60
2023,05,14,08,19,20.60
2023,05,14,08,20,20.60
2023,05,14,08,21,20.60
2023,05,14,08,22,20.60
2023,05,14,08,23,20.70
2023,05,14,08,24,20.70
2023,05,14,08,25,20.70
2023,05,14,08,26,20.70
2023,05,14,08,27,20.70
2023,05,14,08,28,20.70
2023,05,14,08,29,20.80
2023,05,14,08,30,20.80
2023,05,14,08,31,20.80
2023,05,14,08,32,20.80
2023,05,14,08,33,20.80
2023,05,14,08,34,20.90
2023,05,14,08,35,20.90
2023,05,14,08,36,21.00
2023,05,14,08,37,21.00
2023,05,14,08,38,21.00
2023,05,14,08,39,21.10
2023,05,14,08,40,21.10
2023,05,14,08,41,21.10
2023,05,14,08,42,21.10
2023,05,14,08,43,21.20
2023,05,14,08,44,21.20
2023,05,14,08,45,21.20
2023,05,14,08,46,21.20
2023,05,14,08,47,21.20
2023,05,14,08,48,21.20
2023,05,14,08,49,21.10
2023,05,14,08,50,21.10
2023,05,14,08,51,21.10
2023,05,14,08,52,21.10
2023,05,14,08,53,21.10
2023,05,14,08,54,21.20
2023,05,14,08,55,21.20
2023,05,14,08,56,21.20
2023,05,14,08,57,21.20
2023,05,14,08,58,21.30
2023,05,14,08,59,21.30
2023,05,14,09,00,21.30
2023,05,14,09,01,21.30
2023,05,14,09,02,21.20
2023,05,14,09,03,21.20
2023,05,14,09,04,21.20
2023,05,14,09,05,21.30
2023,05,14,09,06,21.30
2023,05,14,09,07,21.30
2023,05,14,09,08,21.30
2023,05,14,09,09,21.30
2023,05,14,09,10,21.30
2023,05,14,09,11,21.30
2023,05,14,09,12,21.30
2023,05,14,09,13,21.30
2023,05,14,09,14,21.30
2023,05,14,09,15,21.30
2023,05,14,09,16,21.30
2023,05,14,09,17,21.30
2023,05,14,09,18,21.30
2023,05,14,09,19,21.30
2023,05,14,09,20,21.30
2023,05,14,09,21,21.30
2023,05,14,09,22,21.40
2023,05,14,09,23,21.40
2023,05,14,09,24,21.40
2023,05,14,09,25,21.60
2023,05,14,09,26,21.50
2023,05,14,09,27,21.40
2023,05,14,09,28,21.40
2023,05,14,09,29,21.60
2023,05,14,09,30,21.60
2023,05,14,09,31,21.50
2023,05,14,09,32,21.60
2023,05,14,09,33,21.60
2023,05,14,09,34,21.60
2023,05,14,09,35,21.50
2023,05,14,09,36,21.60
2023,05,14,09,37,21.50
2023,05,14,09,38,21.40
2023,05,14,09,39,21.40
2023,05,14,09,40,21.40
2023,05,14,09,41,21.50
2023,05,14,09,42,21.60
2023,05,14,09,43,21.60
2023,05,14,09,44,21.60
2023,05,14,09,45,21.60
2023,05,14,09,46,21.60
2023,05,14,09,47,21.60
2023,05,14,09,48,21.50
2023,05,14,09,49,21.40
2023,05,14,09,50,21.40
2023,05,14,09,51,21.50
2023,05,14,09,52,21.60
2023,05,14,09,53,21.60
2023,05,14,09,54,21.60
2023,05,14,09,55,21.60
2023,05,14,09,56,21.70
2023,05,14,09,57,21.70
2023,05,14,09,58,21.70
2023,05,14,09,59,21.80
2023,05,14,10,00,21.80
2023,05,14,10,01,21.80
2023,05,14,10,02,21.90
2023,05,14,10,03,21.90
2023,05,14,10,04,21.90
2023,05,14,10,05,21.80
2023,05,14,10,06,21.80
2023,05,14,10,07,21.80
2023,05,14,10,08,21.80
2023,05,14,10,09,21.80
2023,05,14,10,10,21.80
2023,05,14,10,11,21.90
2023,05,14,10,12,21.90
2023,05,14,10,13,22.00
2023,05,14,10,14,22.10
2023,05,14,10,15,22.10
2023,05,14,10,16,22.20
2023,05,14,10,17,22.20
2023,05,14,10,18,22.30
2023,05,14,10,19,22.30
2023,05,14,10,20,22.30
2023,05,14,10,21,22.30
2023,05,14,10,22,22.30
2023,05,14,10,23,22.30
2023,05,14,10,24,22.30
2023,05,14,10,25,22.40
2023,05,14,10,26,22.40
2023,05,14,10,27,22.40
2023,05,14,10,28,22.50
2023,05,14,10,29,22.60
2023,05,14,10,30,22.60
2023,05,14,10,31,22.60
2023,05,14,10,32,22.60
2023,05,14,10,33,22.60
2023,05,14,10,34,22.60
2023,05,14,10,35,22.60
2023,05,14,10,36,22.60
2023,05,14,10,37,22.60
2023,05,14,10,38,22.60
2023,05,14,10,39,22.70
2023,05,14,10,40,22.70
2023,05,14,10,41,22.60
2023,05,14,10,42,22.70
2023,05,14,10,43,22.70
2023,05,14,10,44,22.80
2023,05,14,10,45,22.90
2023,05,14,10,46,22.90
2023,05,14,10,47,22.90
2023,05,14,10,48,23.00
2023,05,14,10,49,23.10
2023,05,14,10,50,23.10
2023,05,14,10,51,23.10
2023,05,14,10,52,23.10
2023,05,14,10,53,23.10
2023,05,14,10,54,23.10
2023,05,14,10,55,23.10
2023,05,14,10,56,23.20
2023,05,14,10,57,23.20
2023,05,14,10,58,23.20
2023,05,14,10,59,23.30
2023,05,14,11,00,23.30
2023,05,14,11,01,23.30
2023,05,14,11,02,23.40
2023,05,14,11,03,23.40
2023,05,14,11,04,23.40
2023,05,14,11,05,23.30
2023,05,14,11,06,23.30
2023,05,14,11,07,23.30
2023,05,14,11,08,23.30
2023,05,14,11,09,23.30
2023,05,14,11,10,23.30
2023,05,14,11,11,23.50
2023,05,14,11,12,23.60
2023,05,14,11,13,23.60
2023,05,14,11,14,23.70
2023,05,14,11,15,23.60
2023,05,14,11,16,23.60
2023,05,14,11,17,23.70
2023,05,14,11,18,23.70
2023,05,14,11,19,23.70
2023,05,14,11,20,23.70
2023,05,14,11,21,23.70
2023,05,14,11,22,23.70
2023,05,14,11,23,23.80
2023,05,14,11,24,23.90
2023,05,14,11,25,24.00
2023,05,14,11,26,24.10
2023,05,14,11,27,24.10
2023,05,14,11,28,24.10
2023,05,14,11,29,24.10
2023,05,14,11,30,24.10
2023,05,14,11,31,24.20
2023,05,14,11,32,24.20
2023,05,14,11,33,24.30
2023,05,14,11,34,24.30
2023,05,14,11,35,24.30
2023,05,14,11,36,24.30
2023,05,14,11,37,24.30
2023,05,14,11,38,24.20
2023,05,14,11,39,24.20
2023,05,14,11,40,24.20
2023,05,14,11,41,24.10
2023,05,14,11,42,24.10
2023,05,14,11,43,24.20
2023,05,14,11,44,24.20
2023,05,14,11,45,24.30
2023,05,14,11,46,24.30
2023,05,14,11,47,24.40
2023,05,14,11,48,24.50
2023,05,14,11,49,24.60
2023,05,14,11,50,24.60
2023,05,14,11,51,24.60
2023,05,14,11,52,24.60
2023,05,14,11,53,24.60
2023,05,14,11,54,24.50
2023,05,14,11,55,24.50
2023,05,14,11,56,24.50
2023,05,14,11,57,24.60
2023,05,14,11,58,24.70
2023,05,14,11,59,24.70
2023,05,14,12,00,24.80
2023,05,14,12,01,24.90
2023,05,14,12,02,25.00
2023,05,14,12,03,25.10
2023,05,14,12,04,25.20
2023,05,14,12,05,25.20
2023,05,14,12,06,25.10
2023,05,14,12,07,25.10
2023,05,14,12,08,25.20
2023,05,14,12,09,25.30
2023,05,14,12,10,25.50
2023,05,14,12,11,25.40
2023,05,14,12,12,25.50
2023,05,14,12,13,25.50
2023,05,14,12,14,25.50
2023,05,14,12,15,25.40
2023,05,14,12,16,25.40
2023,05,14,12,17,25.30
2023,05,14,12,18,25.30
2023,05,14,12,19,25.20
2023,05,14,12,20,25.20
2023,05,14,12,21,25.10
2023,05,14,12,22,25.00
2023,05,14,12,23,24.90
2023,05,14,12,24,24.90
2023,05,14,12,25,24.80
2023,05,14,12,26,24.80
2023,05,14,12,27,24.70
2023,05,14,12,28,24.70
2023,05,14,12,29,24.70
2023,05,14,12,30,24.80
2023,05,14,12,31,24.90
2023,05,14,12,32,24.90
2023,05,14,12,33,24.90
2023,05,14,12,34,25.00
2023,05,14,12,35,25.00
2023,05,14,12,36,25.20
2023,05,14,12,37,25.40
2023,05,14,12,38,25.50
2023,05,14,12,39,25.60
2023,05,14,12,40,25.70
2023,05,14,12,41,25.80
2023,05,14,12,42,25.90
2023,05,14,12,43,25.90
2023,05,14,12,44,25.90
2023,05,14,12,45,25.80
2023,05,14,12,46,25.70
2023,05,14,12,47,25.60
2023,05,14,12,48,25.50
2023,05,14,12,49,25.50
2023,05,14,12,50,25.50
2023,05,14,12,51,25.50
2023,05,14,12,52,25.50
2023,05,14,12,53,25.60
2023,05,14,12,54,25.60
2023,05,14,12,55,25.60
2023,05,14,12,56,25.60
2023,05,14,12,57,25.70
2023,05,14,12,58,25.80
2023,05,14,12,59,25.80
2023,05,14,13,00,25.80
2023,05,14,13,01,25.90
2023,05,14,13,02,26.00
2023,05,14,13,03,26.10
2023,05,14,13,04,26.20
2023,05,14,13,05,26.20
2023,05,14,13,06,26.20
2023,05,14,13,07,26.20
2023,05,14,13,08,26.20
2023,05,14,13,09,26.20
2023,05,14,13,10,26.10
2023,05,14,13,11,26.00
2023,05,14,13,12,25.90
2023,05,14,13,13,25.80
2023,05,14,13,14,25.70
2023,05,14,13,15,25.70
2023,05,14,13,16,25.70
2023,05,14,13,17,25.80
2023,05,14,13,18,25.90
2023,05,14,13,19,25.90
2023,05,14,13,20,26.00
2023,05,14,13,21,26.10
2023,05,14,13,22,26.30
2023,05,14,13,23,26.40
2023,05,14,13,24,26.40
2023,05,14,13,25,26.60
2023,05,14,13,26,26.50
2023,05,14,13,27,26.40
2023,05,14,13,28,26.40
2023,05,14,13,29,26.40
2023,05,14,13,30,26.40
2023,05,14,13,31,26.40
2023,05,14,13,32,26.50
2023,05,14,13,33,26.60
2023,05,14,13,34,26.60
2023,05,14,13,35,26.70
2023,05,14,13,36,26.80
2023,05,14,13,37,26.90
2023,05,14,13,38,27.10
2023,05,14,13,39,27.10
2023,05,14,13,40,27.10
2023,05,14,13,41,27.10
2023,05,14,13,42,27.00
2023,05,14,13,43,26.90
2023,05,14,13,44,26.80
2023,05,14,13,45,26.80
2023,05,14,13,46,26.80
2023,05,14,13,47,26.80
2023,05,14,13,48,26.80
2023,05,14,13,49,26.90
2023,05,14,13,50,26.90
2023,05,14,13,51,26.90
2023,05,14,13,52,27.00
2023,05,14,13,53,27.10
2023,05,14,13,54,27.30
2023,05,14,13,55,27.30
2023,05,14,13,56,27.30
2023,05,14,13,57,27.30
2023,05,14,13,58,27.10
2023,05,14,13,59,26.90
2023,05,14,14,00,26.80
2023,05,14,14,01,26.80
2023,05,14,14,02,26.80
2023,05,14,14,03,26.80
2023,05,14,14,04,26.90
2023,05,14,14,05,27.10
2023,05,14,14,06,27.20
2023,05,14,14,07,27.20
2023,05,14,14,08,27.20
2023,05,14,14,09,27.30
2023,05,14,14,10,27.30
2023,05,14,14,11,27.40
2023,05,14,14,12,27.50
2023,05,14,14,13,27.60
2023,05,14,14,14,27.60
2023,05,14,14,15,27.60
2023,05,14,14,16,27.50
2023,05,14,14,17,27.50
2023,05,14,14,18,27.40
2023,05,14,14,19,27.40
2023,05,14,14,20,27.40
2023,05,14,14,21,27.50
2023,05,14,14,22,27.60
2023,05,14,14,23,27.60
2023,05,14,14,24,27.60
2023,05,14,14,25,27.60
2023,05,14,14,26,27.60
2023,05,14,14,27,27.70
2023,05,14,14,28,27.70
2023,05,14,14,29,27.70
2023,05,14,14,30,27.70
2023,05,14,14,31,27.70
2023,05,14,14,32,27.70
2023,05,14,14,33,27.70
2023,05,14,14,34,27.60
2023,05,14,14,35,27.60
2023,05,14,14,36,27.70
2023,05,14,14,37,27.80
2023,05,14,14,38,27.70
2023,05,14,14,39,27.70
2023,05,14,14,40,27.70
2023,05,14,14,41,27.60
2023,05,14,14,42,27.50
2023,05,14,14,43,27.40
2023,05,14,14,44,27.40
2023,05,14,14,45,27.40
2023,05,14,14,46,27.60
2023,05,14,14,47,27.50
2023,05,14,14,48,27.40
2023,05,14,14,49,27.40
2023,05,14,14,50,27.60
2023,05,14,14,51,27.60
2023,05,14,14,52,27.60
2023,05,14,14,53,27.60
2023,05,14,14,54,27.70
2023,05,14,14,55,27.70
2023,05,14,14,56,27.80
2023,05,14,14,57,27.90
2023,05,14,14,58,27.90
2023,05,14,14,59,27.90
2023,05,14,15,00,28.00
2023,05,14,15,01,28.10
2023,05,14,15,02,28.10
2023,05,14,15,03,28.10
2023,05,14,15,04,28.20
2023,05,14,15,05,28.10
2023,05,14,15,06,28.10
2023,05,14,15,07,28.00
2023,05,14,15,08,28.00
2023,05,14,15,09,28.00
2023,05,14,15,10,28.00
2023,05,14,15,11,28.00
2023,05,14,15,12,28.00
2023,05,14,15,13,28.10
2023,05,14,15,14,28.10
2023,05,14,15,15,28.10
2023,05,14,15,16,28.10
2023,05,14,15,17,28.20
2023,05,14,15,18,28.20
2023,05,14,15,19,28.20
2023,05,14,15,20,28.20
2023,05,14,15,21,28.20
2023,05,14,15,22,28.20
2023,05,14,15,23,28.30
2023,05,14,15,24,28.30
2023,05,14,15,25,28.30
2023,05,14,15,26,28.30
2023,05,14,15,27,28.30
2023,05,14,15,28,28.30
2023,05,14,15,29,28.30
2023,05,14,15,30,28.30
2023,05,14,15,31,28.30
2023,05,14,15,32,28.30
2023,05,14,15,33,28.30
2023,05,14,15,34,28.30
2023,05,14,15,35,28.30
2023,05,14,15,36,28.30
2023,05,14,15,37,28.30
2023,05,14,15,38,28.40
2023,05,14,15,39,28.50
2023,05,14,15,40,28.60
2023,05,14,15,41,28.60
2023,05,14,15,42,28.70
2023,05,14,15,43,28.70
2023,05,14,15,44,28.80
2023,05,14,15,45,28.80
2023,05,14,15,46,28.80
2023,05,14,15,47,28.90
2023,05,14,15,48,28.90
2023,05,14,15,49,28.90
2023,05,14,15,50,28.90
2023,05,14,15,51,29.00
2023,05,14,15,52,29.10
2023,05,14,15,53,29.10
2023,05,14,15,54,29.00
2023,05,14,15,55,28.90
2023,05,14,15,56,29.00
2023,05,14,15,57,29.10
2023,05,14,15,58,29.20
2023,05,14,15,59,29.30
2023,05,14,16,00,29.30
2023,05,14,16,01,29.30
2023,05,14,16,02,29.40
2023,05,14,16,03,29.40
2023,05,14,16,04,29.40
2023,05,14,16,05,29.60
2023,05,14,16,06,29.70
2023,05,14,16,07,29.80
2023,05,14,16,08,29.80
2023,05,14,16,09,29.80
2023,05,14,16,10,29.80
2023,05,14,16,11,29.70
2023,05,14,16,12,29.50
2023,05,14,16,13,29.30
2023,05,14,16,14,29.20
2023,05,14,16,15,29.20
2023,05,14,16,16,29.30
2023,05,14,16,17,29.30
2023,05,14,16,18,29.30
2023,05,14,16,19,29.20
2023,05,14,16,20,29.10
2023,05,14,16,21,29.10
2023,05,14,16,22,29.00
2023,05,14,16,23,28.90
2023,05,14,16,24,28.90
2023,05,14,16,25,28.90
2023,05,14,16,26,28.90
2023,05,14,16,27,28.90
2023,05,14,16,28,28.90
2023,05,14,16,29,28.90
2023,05,14,16,30,28.90
2023,05,14,16,31,28.90
2023,05,14,16,32,28.90
2023,05,14,16,33,28.90
2023,05,14,16,34,28.90
2023,05,14,16,35,28.90
2023,05,14,16,36,28.90
2023,05,14,16,37,28.90
2023,05,14,16,38,29.10
2023,05,14,16,39,29.10
2023,05,14,16,40,29.20
2023,05,14,16,41,29.10
2023,05,14,16,42,29.10
2023,05,14,16,43,29.10
2023,05,14,16,44,29.00
2023,05,14,16,45,28.90
2023,05,14,16,46,28.90
2023,05,14,16,47,28.90
2023,05,14,16,48,28.90
2023,05,14,16,49,29.00
2023,05,14,16,50,29.10
2023,05,14,16,51,29.10
2023,05,14,16,52,29.20
2023,05,14,16,53,29.20
2023,05,14,16,54,29.20
2023,05,14,16,55,29.20
2023,05,14,16,56,29.20
2023,05,14,16,57,29.20
2023,05,14,16,58,29.20
2023,05,14,16,59,29.20
2023,05,14,17,00,29.20
2023,05,14,17,01,29.30
2023,05,14,17,02,29.30
2023,05,14,17,03,29.40
2023,05,14,17,04,29.40
2023,05,14,17,05,29.40
2023,05,14,17,06,29.40
2023,05,14,17,07,29.40
2023,05,14,17,08,29.60
2023,05,14,17,09,29.60
2023,05,14,17,10,29.50
2023,05,14,17,11,29.50
2023,05,14,17,12,29.50
2023,05,14,17,13,29.50
2023,05,14,17,14,29.50
2023,05,14,17,15,29.40
2023,05,14,17,16,29.30
2023,05,14,17,17,29.10
2023,05,14,17,18,29.00
2023,05,14,17,19,28.90